Find Local Weather

World > North America > United States > Massachusetts

Boston, Massachusetts Regional Weather

Lat: 42.32N, Lon: 71.07W
Wx Zone: MAZ015
Warning FLW WEATHER ALERT - (More Info. Click Here) Warning
Feedback
Expires:201810160100;;245188
ASUS41 KOKX 160005
RWROKX

Regional Weather Roundup
National Weather Service New York NY
800 PM EDT MON OCT 15 2018

Note: "FAIR" indicates few or no clouds below 12,000 feet with no
significant weather and/or obstructions to visibility.


CTZ002-004>006-009-010-012-RIZ004-006-007-MAZ004-011-015-160100-
Southern New England

 In CT
  
CITY           SKY/WX    TMP DP  RH WIND       PRES   REMARKS
Bradley Intl   LGT RAIN  62  60  93 S9        29.81F                  
Hartford       LGT RAIN  64  61  90 S8        29.83S                  
Danbury        LGT RAIN  64  61  90 SW13G21   29.86F                  
Wtrbury/Oxford CLOUDY    63  61  94 SW8G18    29.86F FOG              
Norwalk Harbor   N/A     66 N/A N/A SW20        N/A                   
Bridgeport     CLOUDY    67  63  87 SW17      29.86F                  
Meriden        CLOUDY    64  61  90 S14G21    29.84F                  
New Haven      CLOUDY    67  64  90 SW10G18   29.86F                  
Chester        CLOUDY    64  63  94 SW10G18   29.86F                  
Groton         CLOUDY    67  64  90 SW13      29.85F                  
Willimantic    LGT RAIN  64  63  96 SW13      29.84S                  

 In RI
  
CITY           SKY/WX    TMP DP  RH WIND       PRES   REMARKS
Providence     CLOUDY    66  64  93 SW13G21   29.84F                  
Block Island   CLOUDY    66  50  56 SW22G30   29.88F HAZE             
Westerly       CLOUDY    67  66  97 SW10      29.87S                  
 
In MA
  
CITY           SKY/WX    TMP DP  RH WIND       PRES   REMARKS
Boston         CLOUDY    67  61  81 SW17      29.78F                  
Worcester      LGT RAIN  60  59  96 SW18G26   29.79F                  
Westfield      LGT RAIN  62  61  96 S13       29.79F                  
Provincetown   CLOUDY    65  63  93 S15G23    29.82F                  
Nantucket      CLOUDY    65  63  93 S17       29.90F                  
$$


SKY/WX - Weather  TMP - Temperature  DP - Dew Point  RH - Relative Humidity
WIND - Wind Direction/Speed PRES - Barometric Pressure